Regional Weather Roundup
Issued by NWS New Orleans/Baton Rouge, LA

Home | Current Version | Previous Version | Text Only | Print | Product List | Glossary On
Versions: 1 2 3 4 5 6 7 8 9 10 11 12 13 14 15 16 17 18 19 20 21 22 23 24 25 26 27 28
000
ASUS44 KLIX 240313
RWRLIX
NEW ORLEANS REGIONAL WEATHER ROUNDUP
NATIONAL WEATHER SERVICE NEW ORLEANS LA
1000 PM CDT FRI JUN 23 2017

NOTE: "FAIR" INDICATES FEW OR NO CLOUDS BELOW 12,000 FEET WITH NO
      SIGNIFICANT WEATHER AND/OR OBSTRUCTIONS TO VISIBILITY.
      SKY/WX - SKY CONDITION AND SIGNIFICANT WEATHER.
      TMP - AIR TEMPERATURE.     DP    - DEWPOINT TEMPERATURE.
      RH  - RELATIVE HUMIDITY.   PRES  - PRESSURE.
      HI  - HEAT INDEX.          WCI   - WIND CHILL INDEX.

*  THESE STATIONS ARE NOT NWS OR FAA STATIONS AND ARE NOT UNDER
   NWS QUALITY CONTROL.

LAZ038-040-048-061>063-065>067-069-240400-
SOUTHEAST LOUISIANA

CITY           SKY/WX    TMP DP  RH WIND       PRES   REMARKS
N.O. INTL ARPT MOCLDY    81  78  91 S7        29.96R
N.O. LAKEFRONT CLOUDY    83  78  85 S14       29.96R
N.O. DOWNTOWN*   N/A     85  78  80 S7          N/A  HX  96
RESERVE*       CLOUDY    82  78  87 CALM      29.96S
SLIDELL        CLOUDY    82  79  90 S8        29.95R
BATON ROUGE    PTCLDY    83  77  82 S9        29.95R
BOOTHVILLE     PTCLDY    82  79  90 S12       29.99R
BELLE CHASSE   MOCLDY    81  80  97 S9        29.96R
BOGALUSA*      CLOUDY    77  73  87 N9        29.98S THUNDER
GALLIANO*      MOCLDY    81  75  83 S5        29.97R
NEW ROADS*       N/A     79  77  94 S5        29.94S
GONZALES*      CLOUDY    81  78  90 CALM      29.95R
HAMMOND*       PTCLDY    81  75  83 SW6       29.95R
HOUMA*         NOT AVBL
PORT FOURCHON* MOCLDY    82  77  83 S10       29.98R HAZE

$$

MSZ070-080>082-240400-
SOUTHERN MISSISSIPPI

CITY           SKY/WX    TMP DP  RH WIND       PRES   REMARKS
MCCOMB         PTCLDY    76  74  93 SE3       29.95S
GULFPORT       CLOUDY    82  78  88 S7        29.97R
BILOXI         CLOUDY    82  78  87 SW12      29.97R
PASCAGOULA     CLOUDY    81  76  84 S5        29.98R

$$

COASTAL OBSERVATIONS
LAKE AND NEARSHORE STATIONS

STATION/POSITION TIME  TEMP    WIND        PRES    WAVE
                       AIR SEA DIR/SP/G            HT/PER
                 (UTC) (F)     (DEG/KT/KT) (MB)    (FT/S)
PASCAGOULA       0248   81     210/  9/ 12 1015.0
WAVELAND YACHT   0248   82 80  220/  6/ 10 1014.8
GRAND ISLE       0248   81 84  200/  6/ 11 1015.2
SOUTHWEST PASS   0248   81     180/ 11/ 15   N/A
NEW CANAL        0248   83 83  200/ 10/ 14 1014.6
SHELL BEACH      0248   81 84  190/ 11/ 14 1014.9

OFFSHORE STATIONS

STATION/POSITION TIME  TEMP    WIND        PRES    WAVE
                       AIR SEA DIR/SP/G            HT/PER
                 (UTC) (F)     (DEG/KT/KT) (MB)    (FT/S)
64 S DAUPHIN ISL 0250   81 82  180/ 12/ 14 1015.9    3/ 7

$$





USA.gov is the U.S. government's official web portal to all federal, state and local government web resources and services.